Time,TemperatureF,DewpointF,PressureIn,WindDirection,WindDirectionDegrees,WindSpeedMPH,WindSpeedGustMPH,Humidity,HourlyPrecipIn,Conditions,Clouds,dailyrainin,SoftwareType,DateUTC
2013-01-11 00:03:00,69.0,63.0,30.11,SE,131,3.0,12.0,80,0.00,,,0.00,,2013-01-11 06:03:00,
2013-01-11 00:12:00,69.0,63.0,30.11,SE,131,3.0,12.0,80,0.00,,,0.00,,2013-01-11 06:12:00,
2013-01-11 00:22:00,69.0,63.0,30.11,SE,131,3.0,12.0,80,0.00,,,0.00,,2013-01-11 06:22:00,
2013-01-11 00:32:00,69.0,63.0,30.11,NE,42,5.0,12.0,80,0.00,,,0.00,,2013-01-11 06:32:00,
2013-01-11 00:42:00,69.0,63.0,30.11,NE,42,5.0,12.0,80,0.00,,,0.00,,2013-01-11 06:42:00,
2013-01-11 00:52:00,69.0,63.0,30.10,SE,142,4.0,12.0,82,0.00,,,0.00,,2013-01-11 06:52:00,
2013-01-11 01:02:00,68.0,63.0,30.10,SSE,147,4.0,9.0,84,0.00,,,0.00,,2013-01-11 07:02:00,
2013-01-11 01:12:00,68.0,63.0,30.10,SSE,147,4.0,9.0,84,0.00,,,0.00,,2013-01-11 07:12:00,
2013-01-11 01:22:00,67.0,62.0,30.09,SE,135,4.0,11.0,85,0.00,,,0.00,,2013-01-11 07:22:00,
2013-01-11 01:32:00,67.0,63.0,30.09,SSE,148,4.0,9.0,86,0.00,,,0.00,,2013-01-11 07:32:00,
2013-01-11 01:42:00,67.0,63.0,30.07,SE,134,5.0,9.0,88,0.00,,,0.00,,2013-01-11 07:42:00,
2013-01-11 01:52:00,67.0,63.0,30.07,SE,134,5.0,9.0,88,0.00,,,0.00,,2013-01-11 07:52:00,
2013-01-11 02:02:00,66.0,62.0,30.03,ESE,109,4.0,9.0,88,0.00,,,0.00,,2013-01-11 08:02:00,
2013-01-11 02:12:00,66.0,62.0,30.04,SE,132,5.0,9.0,88,0.00,,,0.00,,2013-01-11 08:12:00,
2013-01-11 02:22:00,66.0,62.0,30.04,SE,132,5.0,9.0,88,0.00,,,0.00,,2013-01-11 08:22:00,
2013-01-11 02:32:00,66.0,62.0,30.04,SE,133,4.0,10.0,87,0.00,,,0.00,,2013-01-11 08:32:00,
2013-01-11 02:42:00,66.0,62.0,30.04,SE,133,4.0,10.0,87,0.00,,,0.00,,2013-01-11 08:42:00,
2013-01-11 02:53:00,66.0,62.0,30.04,ESE,122,2.0,6.0,87,0.00,,,0.00,,2013-01-11 08:53:00,
2013-01-11 03:02:00,66.0,62.0,30.04,ESE,105,2.0,7.0,87,0.00,,,0.00,,2013-01-11 09:02:00,
2013-01-11 03:12:00,66.0,62.0,30.04,ESE,105,2.0,7.0,87,0.00,,,0.00,,2013-01-11 09:12:00,
2013-01-11 03:23:00,66.0,62.0,30.04,ESE,105,2.0,7.0,87,0.00,,,0.00,,2013-01-11 09:23:00,
2013-01-11 03:32:00,65.0,61.0,30.05,WSW,245,0.0,1.0,88,0.00,,,0.00,,2013-01-11 09:32:00,
2013-01-11 03:42:00,65.0,61.0,30.05,WSW,245,0.0,1.0,88,0.00,,,0.00,,2013-01-11 09:42:00,
2013-01-11 03:52:00,65.0,62.0,30.06,NNW,327,0.0,3.0,89,0.00,,,0.00,,2013-01-11 09:52:00,
2013-01-11 04:02:00,64.0,61.0,30.06,North,354,0.0,0.0,90,0.00,,,0.00,,2013-01-11 10:02:00,
2013-01-11 04:12:00,64.0,61.0,30.06,North,354,0.0,0.0,90,0.00,,,0.00,,2013-01-11 10:12:00,
2013-01-11 04:22:00,63.0,60.0,30.07,ENE,68,0.0,1.0,91,0.00,,,0.00,,2013-01-11 10:22:00,
2013-01-11 04:32:00,62.0,60.0,30.08,ENE,68,0.0,0.0,93,0.00,,,0.00,,2013-01-11 10:32:00,
2013-01-11 04:42:00,62.0,60.0,30.08,ENE,68,0.0,0.0,93,0.00,,,0.00,,2013-01-11 10:42:00,
2013-01-11 04:53:00,61.0,59.0,30.08,ENE,65,0.0,0.0,94,0.00,,,0.00,,2013-01-11 10:53:00,
2013-01-11 05:03:00,61.0,60.0,30.08,ENE,70,0.0,0.0,95,0.00,,,0.00,,2013-01-11 11:03:00,
2013-01-11 05:12:00,61.0,60.0,30.08,ENE,70,0.0,0.0,95,0.00,,,0.00,,2013-01-11 11:12:00,
2013-01-11 05:22:00,61.0,60.0,30.08,ENE,69,0.0,0.0,95,0.00,,,0.00,,2013-01-11 11:22:00,
2013-01-11 05:33:00,61.0,60.0,30.08,ENE,69,0.0,0.0,95,0.00,,,0.00,,2013-01-11 11:33:00,
2013-01-11 05:43:00,61.0,60.0,30.08,ENE,69,0.0,0.0,95,0.00,,,0.00,,2013-01-11 11:43:00,
2013-01-11 05:53:00,60.0,59.0,30.08,ENE,76,0.0,1.0,96,0.00,,,0.00,,2013-01-11 11:53:00,
2013-01-11 06:03:00,60.0,59.0,30.09,ENE,76,0.0,0.0,96,0.00,,,0.00,,2013-01-11 12:03:00,
2013-01-11 06:12:00,60.0,59.0,30.09,ENE,76,0.0,0.0,96,0.00,,,0.00,,2013-01-11 12:12:00,
2013-01-11 06:22:00,60.0,59.0,30.09,ENE,76,0.0,0.0,96,0.00,,,0.00,,2013-01-11 12:22:00,
2013-01-11 06:33:00,60.0,59.0,30.10,ENE,76,0.0,0.0,96,0.00,,,0.00,,2013-01-11 12:33:00,
2013-01-11 06:43:00,60.0,59.0,30.10,ENE,76,0.0,0.0,96,0.00,,,0.00,,2013-01-11 12:43:00,
2013-01-11 06:53:00,61.0,60.0,30.11,ENE,75,0.0,1.0,96,0.00,,,0.00,,2013-01-11 12:53:00,
2013-01-11 07:03:00,61.0,60.0,30.11,ENE,75,0.0,0.0,96,0.00,,,0.00,,2013-01-11 13:03:00,
2013-01-11 07:13:00,61.0,60.0,30.11,ENE,75,0.0,0.0,96,0.00,,,0.00,,2013-01-11 13:13:00,
2013-01-11 07:22:00,61.0,60.0,30.11,ENE,75,0.0,0.0,96,0.00,,,0.00,,2013-01-11 13:22:00,
2013-01-11 07:33:00,61.0,60.0,30.12,ENE,75,0.0,0.0,96,0.00,,,0.00,,2013-01-11 13:33:00,
2013-01-11 07:43:00,61.0,60.0,30.12,ENE,75,0.0,0.0,96,0.00,,,0.00,,2013-01-11 13:43:00,
2013-01-11 07:53:00,62.0,61.0,30.12,ENE,75,0.0,0.0,95,0.00,,,0.00,,2013-01-11 13:53:00,
2013-01-11 08:03:00,62.0,61.0,30.13,East,92,0.0,0.0,95,0.00,,,0.00,,2013-01-11 14:03:00,
2013-01-11 08:12:00,62.0,61.0,30.13,East,92,0.0,0.0,95,0.00,,,0.00,,2013-01-11 14:12:00,
2013-01-11 08:23:00,63.0,61.0,30.14,ESE,108,0.0,2.0,93,0.00,,,0.00,,2013-01-11 14:23:00,
2013-01-11 08:33:00,64.0,62.0,30.15,SE,139,0.0,2.0,93,0.00,,,0.00,,2013-01-11 14:33:00,
2013-01-11 08:43:00,64.0,62.0,30.16,WSW,249,0.0,4.0,92,0.00,,,0.00,,2013-01-11 14:43:00,
2013-01-11 08:53:00,64.0,62.0,30.16,WSW,249,0.0,4.0,92,0.00,,,0.00,,2013-01-11 14:53:00,
2013-01-11 09:03:00,65.0,63.0,30.16,SE,138,0.0,3.0,92,0.00,,,0.00,,2013-01-11 15:03:00,
2013-01-11 09:13:00,65.0,62.0,30.16,SE,139,1.0,3.0,91,0.00,,,0.00,,2013-01-11 15:13:00,
2013-01-11 09:23:00,65.0,62.0,30.16,SE,139,1.0,3.0,91,0.00,,,0.00,,2013-01-11 15:23:00,
2013-01-11 09:33:00,67.0,64.0,30.16,SE,131,2.0,5.0,89,0.00,,,0.00,,2013-01-11 15:33:00,
2013-01-11 09:43:00,67.0,64.0,30.16,SE,131,2.0,5.0,89,0.00,,,0.00,,2013-01-11 15:43:00,
2013-01-11 09:53:00,68.0,65.0,30.16,SE,139,3.0,7.0,89,0.00,,,0.00,,2013-01-11 15:53:00,
2013-01-11 10:03:00,70.0,66.0,30.15,SE,131,2.0,14.0,87,0.00,,,0.00,,2013-01-11 16:03:00,
2013-01-11 10:12:00,70.0,66.0,30.16,South,176,4.0,10.0,86,0.00,,,0.00,,2013-01-11 16:12:00,
2013-01-11 10:23:00,70.0,66.0,30.16,South,176,4.0,10.0,86,0.00,,,0.00,,2013-01-11 16:23:00,
2013-01-11 10:33:00,71.0,67.0,30.15,WSW,240,2.0,9.0,86,0.00,,,0.00,,2013-01-11 16:33:00,
2013-01-11 10:43:00,71.0,67.0,30.15,WSW,240,2.0,9.0,86,0.00,,,0.00,,2013-01-11 16:43:00,
2013-01-11 10:53:00,71.0,66.0,30.15,SW,228,6.0,12.0,84,0.00,,,0.00,,2013-01-11 16:53:00,
2013-01-11 11:03:00,72.0,67.0,30.14,SSW,208,5.0,10.0,83,0.00,,,0.00,,2013-01-11 17:03:00,
2013-01-11 11:12:00,72.0,67.0,30.14,SSW,208,5.0,10.0,83,0.00,,,0.00,,2013-01-11 17:12:00,
2013-01-11 11:22:00,72.0,66.0,30.14,WSW,242,3.0,11.0,82,0.00,,,0.00,,2013-01-11 17:22:00,
2013-01-11 11:33:00,73.0,66.0,30.13,SSW,202,6.0,13.0,80,0.00,,,0.00,,2013-01-11 17:33:00,
2013-01-11 11:43:00,73.0,66.0,30.13,SSW,202,6.0,13.0,80,0.00,,,0.00,,2013-01-11 17:43:00,
2013-01-11 11:53:00,73.0,66.0,30.13,SSW,202,6.0,13.0,80,0.00,,,0.00,,2013-01-11 17:53:00,
2013-01-11 12:04:00,74.0,67.0,30.12,South,185,5.0,13.0,78,0.00,,,0.00,,2013-01-11 18:04:00,
2013-01-11 12:13:00,74.0,67.0,30.12,South,185,5.0,13.0,78,0.00,,,0.00,,2013-01-11 18:13:00,
2013-01-11 12:23:00,74.0,67.0,30.11,SSW,211,2.0,15.0,78,0.00,,,0.00,,2013-01-11 18:23:00,
2013-01-11 12:33:00,74.0,67.0,30.10,SSW,208,4.0,14.0,78,0.00,,,0.00,,2013-01-11 18:33:00,
2013-01-11 12:43:00,74.0,67.0,30.10,SSW,208,4.0,14.0,78,0.00,,,0.00,,2013-01-11 18:43:00,
2013-01-11 12:53:00,74.0,66.0,30.09,WSW,238,5.0,16.0,76,0.00,,,0.00,,2013-01-11 18:53:00,
2013-01-11 13:03:00,74.0,66.0,30.09,WSW,238,5.0,16.0,76,0.00,,,0.00,,2013-01-11 19:03:00,
2013-01-11 13:13:00,74.0,66.0,30.09,WSW,238,5.0,16.0,76,0.00,,,0.00,,2013-01-11 19:13:00,
2013-01-11 13:22:00,77.0,66.0,30.08,South,190,4.0,12.0,70,0.00,,,0.00,,2013-01-11 19:22:00,
2013-01-11 13:33:00,77.0,65.0,30.07,SSW,197,7.0,12.0,67,0.00,,,0.00,,2013-01-11 19:33:00,
2013-01-11 13:43:00,77.0,65.0,30.07,SSW,197,7.0,12.0,67,0.00,,,0.00,,2013-01-11 19:43:00,
2013-01-11 13:53:00,77.0,65.0,30.07,SSW,205,3.0,11.0,67,0.00,,,0.00,,2013-01-11 19:53:00,
2013-01-11 14:03:00,78.0,65.0,30.07,SW,215,5.0,14.0,64,0.00,,,0.00,,2013-01-11 20:03:00,
2013-01-11 14:13:00,78.0,65.0,30.07,SW,215,5.0,14.0,64,0.00,,,0.00,,2013-01-11 20:13:00,
2013-01-11 14:22:00,78.0,65.0,30.06,SW,232,3.0,11.0,64,0.00,,,0.00,,2013-01-11 20:22:00,
2013-01-11 14:33:00,77.0,64.0,30.07,WSW,237,7.0,14.0,64,0.00,,,0.00,,2013-01-11 20:33:00,
2013-01-11 14:43:00,77.0,64.0,30.07,WSW,237,7.0,14.0,64,0.00,,,0.00,,2013-01-11 20:43:00,
2013-01-11 14:52:00,77.0,64.0,30.07,SW,219,8.0,16.0,65,0.00,,,0.00,,2013-01-11 20:52:00,
2013-01-11 15:03:00,76.0,65.0,30.07,SSW,212,5.0,11.0,68,0.00,,,0.00,,2013-01-11 21:03:00,
2013-01-11 15:13:00,76.0,65.0,30.07,SSW,212,5.0,11.0,68,0.00,,,0.00,,2013-01-11 21:13:00,
2013-01-11 15:23:00,77.0,65.0,30.07,SW,229,5.0,10.0,67,0.00,,,0.00,,2013-01-11 21:23:00,
2013-01-11 15:33:00,77.0,66.0,30.07,SSW,204,3.0,13.0,68,0.00,,,0.00,,2013-01-11 21:33:00,
2013-01-11 15:43:00,77.0,66.0,30.07,SSW,204,3.0,13.0,68,0.00,,,0.00,,2013-01-11 21:43:00,
2013-01-11 15:52:00,77.0,65.0,30.07,SW,222,5.0,11.0,67,0.00,,,0.00,,2013-01-11 21:52:00,
2013-01-11 16:03:00,76.0,65.0,30.08,SSW,208,4.0,9.0,69,0.00,,,0.00,,2013-01-11 22:03:00,
2013-01-11 16:12:00,76.0,65.0,30.08,SSW,208,4.0,9.0,69,0.00,,,0.00,,2013-01-11 22:12:00,
2013-01-11 16:23:00,75.0,65.0,30.07,WSW,252,2.0,9.0,71,0.00,,,0.00,,2013-01-11 22:23:00,
2013-01-11 16:33:00,74.0,64.0,30.07,SSW,205,3.0,12.0,71,0.00,,,0.00,,2013-01-11 22:33:00,
2013-01-11 16:42:00,74.0,64.0,30.07,SSW,205,3.0,12.0,71,0.00,,,0.00,,2013-01-11 22:42:00,
2013-01-11 16:52:00,74.0,64.0,30.07,SSE,150,3.0,7.0,72,0.00,,,0.00,,2013-01-11 22:52:00,
2013-01-11 17:02:00,74.0,65.0,30.07,SSW,201,1.0,6.0,73,0.00,,,0.00,,2013-01-11 23:02:00,
2013-01-11 17:13:00,74.0,65.0,30.07,SSW,201,1.0,6.0,73,0.00,,,0.00,,2013-01-11 23:13:00,
2013-01-11 17:23:00,73.0,64.0,30.08,SE,131,1.0,8.0,74,0.00,,,0.00,,2013-01-11 23:23:00,
2013-01-11 17:33:00,73.0,65.0,30.08,SSW,201,0.0,5.0,75,0.00,,,0.00,,2013-01-11 23:33:00,
2013-01-11 17:43:00,73.0,65.0,30.08,SSW,201,0.0,5.0,75,0.00,,,0.00,,2013-01-11 23:43:00,
2013-01-11 17:53:00,72.0,64.0,30.08,SSW,212,1.0,4.0,76,0.00,,,0.00,,2013-01-11 23:53:00,
2013-01-11 18:03:00,72.0,64.0,30.08,SSW,197,1.0,5.0,77,0.00,,,0.00,,2013-01-12 00:03:00,
2013-01-11 18:12:00,71.0,64.0,30.09,SW,217,1.0,5.0,78,0.00,,,0.00,,2013-01-12 00:12:00,
2013-01-11 18:23:00,71.0,64.0,30.09,SW,217,1.0,5.0,78,0.00,,,0.00,,2013-01-12 00:23:00,
2013-01-11 18:33:00,71.0,65.0,30.09,SW,219,1.0,3.0,80,0.00,,,0.00,,2013-01-12 00:33:00,
2013-01-11 18:43:00,71.0,65.0,30.09,SW,219,1.0,3.0,80,0.00,,,0.00,,2013-01-12 00:43:00,
2013-01-11 18:52:00,70.0,64.0,30.09,SW,215,0.0,3.0,81,0.00,,,0.00,,2013-01-12 00:52:00,
2013-01-11 19:03:00,69.0,64.0,30.10,SE,136,0.0,1.0,83,0.00,,,0.00,,2013-01-12 01:03:00,
2013-01-11 19:12:00,69.0,64.0,30.10,SE,136,0.0,1.0,83,0.00,,,0.00,,2013-01-12 01:12:00,
2013-01-11 19:22:00,68.0,64.0,30.10,SSE,166,0.0,2.0,86,0.00,,,0.00,,2013-01-12 01:22:00,
2013-01-11 19:33:00,67.0,63.0,30.10,SE,134,0.0,0.0,87,0.00,,,0.00,,2013-01-12 01:33:00,
2013-01-11 19:43:00,67.0,63.0,30.10,SE,134,0.0,0.0,87,0.00,,,0.00,,2013-01-12 01:43:00,
2013-01-11 19:52:00,66.0,63.0,30.10,SSE,158,0.0,1.0,89,0.00,,,0.00,,2013-01-12 01:52:00,
2013-01-11 20:02:00,66.0,63.0,30.11,SW,218,0.0,2.0,91,0.00,,,0.00,,2013-01-12 02:02:00,
2013-01-11 20:12:00,66.0,63.0,30.11,SW,218,0.0,2.0,91,0.00,,,0.00,,2013-01-12 02:12:00,
2013-01-11 20:22:00,66.0,64.0,30.11,South,172,0.0,3.0,92,0.00,,,0.00,,2013-01-12 02:22:00,
2013-01-11 20:33:00,66.0,64.0,30.10,SSW,213,0.0,4.0,92,0.00,,,0.00,,2013-01-12 02:33:00,
2013-01-11 20:43:00,66.0,64.0,30.10,SSW,213,0.0,4.0,92,0.00,,,0.00,,2013-01-12 02:43:00,
2013-01-11 20:53:00,66.0,64.0,30.11,SE,137,0.0,3.0,92,0.00,,,0.00,,2013-01-12 02:53:00,
2013-01-11 21:03:00,66.0,64.0,30.11,ESE,120,0.0,3.0,93,0.00,,,0.00,,2013-01-12 03:03:00,
2013-01-11 21:12:00,66.0,64.0,30.11,ESE,120,0.0,3.0,93,0.00,,,0.00,,2013-01-12 03:12:00,
2013-01-11 21:22:00,65.0,63.0,30.11,SE,125,0.0,4.0,94,0.00,,,0.00,,2013-01-12 03:22:00,
2013-01-11 21:33:00,65.0,64.0,30.11,SSE,153,0.0,3.0,95,0.00,,,0.00,,2013-01-12 03:33:00,
2013-01-11 21:43:00,65.0,64.0,30.11,SSE,153,0.0,3.0,95,0.00,,,0.00,,2013-01-12 03:43:00,
2013-01-11 21:52:00,65.0,64.0,30.11,SE,139,0.0,3.0,95,0.00,,,0.00,,2013-01-12 03:52:00,
2013-01-11 22:02:00,65.0,64.0,30.11,SE,142,0.0,2.0,96,0.00,,,0.00,,2013-01-12 04:02:00,
2013-01-11 22:12:00,65.0,64.0,30.11,SE,142,0.0,2.0,96,0.00,,,0.00,,2013-01-12 04:12:00,
2013-01-11 22:22:00,65.0,64.0,30.10,SE,134,0.0,1.0,96,0.00,,,0.00,,2013-01-12 04:22:00,
2013-01-11 22:32:00,65.0,64.0,30.11,SE,141,0.0,1.0,96,0.00,,,0.00,,2013-01-12 04:32:00,
2013-01-11 22:42:00,65.0,64.0,30.11,SE,141,0.0,1.0,96,0.00,,,0.00,,2013-01-12 04:42:00,
2013-01-11 22:52:00,65.0,64.0,30.11,SSE,165,0.0,5.0,97,0.00,,,0.00,,2013-01-12 04:52:00,
2013-01-11 23:03:00,65.0,64.0,30.11,WSW,243,0.0,3.0,97,0.00,,,0.00,,2013-01-12 05:03:00,
2013-01-11 23:12:00,65.0,64.0,30.11,WSW,243,0.0,3.0,97,0.00,,,0.00,,2013-01-12 05:12:00,
2013-01-11 23:22:00,66.0,65.0,30.09,SW,221,1.0,3.0,97,0.00,,,0.00,,2013-01-12 05:22:00,
2013-01-11 23:32:00,66.0,65.0,30.10,SSE,149,1.0,5.0,96,0.00,,,0.00,,2013-01-12 05:32:00,
2013-01-11 23:42:00,66.0,65.0,30.10,SSE,149,1.0,5.0,96,0.00,,,0.00,,2013-01-12 05:42:00,
2013-01-11 23:52:00,66.0,65.0,30.10,SSE,162,1.0,6.0,95,0.00,,,0.00,,2013-01-12 05:52:00,